Orbital Elements at Epoch 2459200.5 (2020-Dec-17.0) TDB
Reference: JPL 35 (heliocentric ecliptic J2000)
Element | Value | Uncertainty (1-sigma) | Units |
e | .1681364295977027 | 3.2342e-08 | |
a | 2.269957804034401 | 6.3086e-09 | au |
q | 1.888295203526615 | 7.2688e-08 | au |
i | 8.872767099928009 | 3.1339e-06 | deg |
node | 93.05016395897138 | 2.3702e-05 | deg |
peri | 215.6345389518137 | 2.5612e-05 | deg |
M | 157.527510378289 | 1.0034e-05 | deg |
tp | 2458653.888188741726 (2019-Jun-19.38818874) | 3.4551e-05 | TDB |
period | 1249.180232585582 3.42 | 5.2075e-06 1.426e-08 | d yr |
n | .2881889983600396 | 1.2014e-09 | deg/d |
Q | 2.651620404542187 | 7.3693e-09 | au |
|
| | Orbit Determination Parameters
Additional Information
|